Regional Weather Roundup
Issued by NWS

Home | Current Version | Previous Version | Graphics & Text | Print | Product List | Glossary On
Versions: 1 2 3 4 5 6 7 8 9 10 11 12 13 14 15 16 17 18 19 20 21 22 23 24 25 26 27 28 29 30 31 32 33 34 35 36 37 38 39 40 41 42 43 44 45 46 47 48 49 50
000
ASUS43 KBIS 140202
RWRND

NORTH DAKOTA REGIONAL WEATHER ROUNDUP
NATIONAL WEATHER SERVICE BISMARCK ND
800 PM CST SAT FEB 13 2016

NOTE: "FAIR" INDICATES FEW OR NO CLOUDS BELOW 12,000 FEET WITH NO
SIGNIFICANT WEATHER AND/OR OBSTRUCTIONS TO VISIBILITY.


NDZ001>003-009>011-017-140300-
NORTHWEST NORTH DAKOTA

CITY           SKY/WX    TMP DP  RH WIND       PRES   REMARKS
WILLISTON      CLOUDY    23  20  88 CALM      29.78S
MINOT          LGT SNOW  17  10  74 SE12      29.85F WCI   4
MINOT AFB      LGT SNOW  16  14  93 SE8G16    29.85F VSB 1   WCI   5
$$

NDZ018>021-031>035-040>046-140300-
SOUTHWEST NORTH DAKOTA

CITY           SKY/WX    TMP DP  RH WIND       PRES   REMARKS
BISMARCK       LGT SNOW  18  12  77 SE13      29.91F WCI   5
DICKINSON      CLOUDY    30  26  85 SW13      29.75F WCI  20
GARRISON         N/A     15  12  88 SE15      29.83F WCI   0
HETTINGER ARPT CLOUDY    25  23  92 S6        29.82F WCI  18
$$

NDZ004>008-012>016-024-026-027-054-140300-
NORTHEAST NORTH DAKOTA

CITY           SKY/WX    TMP DP  RH WIND       PRES   REMARKS
GRAND FORKS    CLOUDY    13   1  59 SE20      30.14F WCI  -5
GRND FRKS AFB  CLOUDY    13   1  60 S22G28    30.11F WCI  -6
DEVILS LAKE    FLURRIES   9   4  80 SE17      30.01F WCI  -9
$$

NDZ022-023-025-028>030-036>039-047>053-140300-
SOUTHEAST NORTH DAKOTA

CITY           SKY/WX    TMP DP  RH WIND       PRES   REMARKS
FARGO          CLOUDY    15   1  53 SE22G31   30.15F WCI  -3
JAMESTOWN      LGT SNOW  10   4  76 SE18      30.01F WCI  -8
$$




USA.gov is the U.S. government's official web portal to all federal, state and local government web resources and services.